Location: Casa Rossa
(45.2389°N, 12.2056°E)
Time: 22:32:45
(UTC+00:00)

NPP - Pass Details

Date: 14 July 2020
Orbit: 826 x 828 km, 98.7° (Epoch: 14 August)

Event Time Altitude Azimuth Distance (km) Brightness Sun altitude
Rises 01:18:12 0° 11° (NNE) 3,377 8.2 -17.7°
Reaches altitude 10° 01:20:34 10° 10° (N) 2,439 7.2 -17.5°
Maximum altitude 01:25:56 70° 288° (WNW) 882 3.7 -17.0°
Enters shadow 01:28:52 28° 211° (SSW) 1,522 4.4 -16.7°
